Terug naar catalogus

ATLAS 5 CENTAUR DEB

ActiefHEO
NORAD 43963·DEBRIS·🇺🇸 United States

Gelanceerd Sep 17, 2014 vanaf Cape Canaveral Space Force Station

Loading…

Volgende Passages (komende 24 uur)

TLE

VerouderendSource: Space-Track

Epoch: Sep 1, 2026, 00:00 UTC

1 43963U 14055S   26244.00065318 -.00000113  00000-0  00000-0 0  9997
2 43963  20.6784 117.0959 4922610 215.1490  99.3863  1.87928653 54895

Volg ATLAS 5 CENTAUR DEB in realtime met AllMySat

Download on the App Store